Tracking 19572 objects as of 24-Feb-2019
HD Live streaming from Space Station
objects crossing your sky now

COSMOS 2407

Track COSMOS 2407 now!
10-day predictions
COSMOS 2407 is classified as:


NORAD ID: 28380
Int'l Code: 2004-028A
Perigee: 955.9 km
Apogee: 1,014.1 km
Inclination: 83.0 °
Period: 104.6 minutes
Semi major axis: 7356 km
RCS: 1.9044 m2 (large)
Launch date: July 22, 2004
Source: Commonwealth of Independent States (former USSR) (CIS)
Launch site: PLESETSK MISSILE AND SPACE COMPLEX (PKMTR)

Normally part of a six-satellite constellation.
aabbcc
Your satellite tracking list
Your tracking list is empty




NASA's NSSDC Master Catalog

Two Line Element Set (TLE):
1 28380U 04028A   19054.52336178 +.00000057 +00000-0 +42265-4 0  9994
2 28380 082.9574 252.0842 0039582 158.3826 201.9022 13.76062209732768
Source of the keplerian elements: AFSPC